Index of /20260424/WXO-DD/model_gdps/15km/00/084
Name Last modified Size Description
Parent Directory -
20260424T00Z_MSC_GDPS_AbsoluteVorticity_IsbL-0200_LatLon0.15_PT084H.grib2 2026-04-24 04:21 1.5M
20260424T00Z_MSC_GDPS_AbsoluteVorticity_IsbL-0250_LatLon0.15_PT084H.grib2 2026-04-24 04:21 1.3M
20260424T00Z_MSC_GDPS_AbsoluteVorticity_IsbL-0500_LatLon0.15_PT084H.grib2 2026-04-24 04:21 1.5M
20260424T00Z_MSC_GDPS_AbsoluteVorticity_IsbL-0700_LatLon0.15_PT084H.grib2 2026-04-24 04:21 1.3M
20260424T00Z_MSC_GDPS_AbsoluteVorticity_IsbL-0850_LatLon0.15_PT084H.grib2 2026-04-24 04:21 1.6M
20260424T00Z_MSC_GDPS_AirTemp-Max_AGL-2m_LatLon0.15_PT084H.grib2 2026-04-24 04:21 742K
20260424T00Z_MSC_GDPS_AirTemp-Min_AGL-2m_LatLon0.15_PT084H.grib2 2026-04-24 04:21 788K
20260424T00Z_MSC_GDPS_AirTemp_AGL-120m_LatLon0.15_PT084H.grib2 2026-04-24 04:21 909K
20260424T00Z_MSC_GDPS_AirTemp_AGL-2m_LatLon0.15_PT084H.grib2 2026-04-24 04:21 1.0M
20260424T00Z_MSC_GDPS_AirTemp_AGL-40m_LatLon0.15_PT084H.grib2 2026-04-24 04:21 813K
20260424T00Z_MSC_GDPS_AirTemp_AGL-80m_LatLon0.15_PT084H.grib2 2026-04-24 04:21 802K
20260424T00Z_MSC_GDPS_AirTemp_IsbL-0001_LatLon0.15_PT084H.grib2 2026-04-24 04:21 704K
20260424T00Z_MSC_GDPS_AirTemp_IsbL-0005_LatLon0.15_PT084H.grib2 2026-04-24 04:21 685K
20260424T00Z_MSC_GDPS_AirTemp_IsbL-0010_LatLon0.15_PT084H.grib2 2026-04-24 04:21 759K
20260424T00Z_MSC_GDPS_AirTemp_IsbL-0020_LatLon0.15_PT084H.grib2 2026-04-24 04:21 699K
20260424T00Z_MSC_GDPS_AirTemp_IsbL-0030_LatLon0.15_PT084H.grib2 2026-04-24 04:21 751K
20260424T00Z_MSC_GDPS_AirTemp_IsbL-0050_LatLon0.15_PT084H.grib2 2026-04-24 04:21 803K
20260424T00Z_MSC_GDPS_AirTemp_IsbL-0100_LatLon0.15_PT084H.grib2 2026-04-24 04:21 1.0M
20260424T00Z_MSC_GDPS_AirTemp_IsbL-0150_LatLon0.15_PT084H.grib2 2026-04-24 04:21 957K
20260424T00Z_MSC_GDPS_AirTemp_IsbL-0175_LatLon0.15_PT084H.grib2 2026-04-24 04:21 950K
20260424T00Z_MSC_GDPS_AirTemp_IsbL-0200_LatLon0.15_PT084H.grib2 2026-04-24 04:21 967K
20260424T00Z_MSC_GDPS_AirTemp_IsbL-0225_LatLon0.15_PT084H.grib2 2026-04-24 04:21 971K
20260424T00Z_MSC_GDPS_AirTemp_IsbL-0250_LatLon0.15_PT084H.grib2 2026-04-24 04:21 1.0M
20260424T00Z_MSC_GDPS_AirTemp_IsbL-0275_LatLon0.15_PT084H.grib2 2026-04-24 04:21 1.0M
20260424T00Z_MSC_GDPS_AirTemp_IsbL-0300_LatLon0.15_PT084H.grib2 2026-04-24 04:21 1.0M
20260424T00Z_MSC_GDPS_AirTemp_IsbL-0350_LatLon0.15_PT084H.grib2 2026-04-24 04:21 923K
20260424T00Z_MSC_GDPS_AirTemp_IsbL-0400_LatLon0.15_PT084H.grib2 2026-04-24 04:21 936K
20260424T00Z_MSC_GDPS_AirTemp_IsbL-0450_LatLon0.15_PT084H.grib2 2026-04-24 04:21 957K
20260424T00Z_MSC_GDPS_AirTemp_IsbL-0500_LatLon0.15_PT084H.grib2 2026-04-24 04:21 1.0M
20260424T00Z_MSC_GDPS_AirTemp_IsbL-0550_LatLon0.15_PT084H.grib2 2026-04-24 04:21 798K
20260424T00Z_MSC_GDPS_AirTemp_IsbL-0600_LatLon0.15_PT084H.grib2 2026-04-24 04:21 895K
20260424T00Z_MSC_GDPS_AirTemp_IsbL-0650_LatLon0.15_PT084H.grib2 2026-04-24 04:21 925K
20260424T00Z_MSC_GDPS_AirTemp_IsbL-0700_LatLon0.15_PT084H.grib2 2026-04-24 04:21 957K
20260424T00Z_MSC_GDPS_AirTemp_IsbL-0750_LatLon0.15_PT084H.grib2 2026-04-24 04:21 1.0M
20260424T00Z_MSC_GDPS_AirTemp_IsbL-0800_LatLon0.15_PT084H.grib2 2026-04-24 04:21 1.1M
20260424T00Z_MSC_GDPS_AirTemp_IsbL-0850_LatLon0.15_PT084H.grib2 2026-04-24 04:21 1.1M
20260424T00Z_MSC_GDPS_AirTemp_IsbL-0875_LatLon0.15_PT084H.grib2 2026-04-24 04:21 1.2M
20260424T00Z_MSC_GDPS_AirTemp_IsbL-0900_LatLon0.15_PT084H.grib2 2026-04-24 04:21 1.1M
20260424T00Z_MSC_GDPS_AirTemp_IsbL-0925_LatLon0.15_PT084H.grib2 2026-04-24 04:21 1.1M
20260424T00Z_MSC_GDPS_AirTemp_IsbL-0950_LatLon0.15_PT084H.grib2 2026-04-24 04:21 1.2M
20260424T00Z_MSC_GDPS_AirTemp_IsbL-0970_LatLon0.15_PT084H.grib2 2026-04-24 04:21 1.2M
20260424T00Z_MSC_GDPS_AirTemp_IsbL-0985_LatLon0.15_PT084H.grib2 2026-04-24 04:21 1.2M
20260424T00Z_MSC_GDPS_AirTemp_IsbL-1000_LatLon0.15_PT084H.grib2 2026-04-24 04:21 1.1M
20260424T00Z_MSC_GDPS_AirTemp_IsbL-1015_LatLon0.15_PT084H.grib2 2026-04-24 04:21 1.1M
20260424T00Z_MSC_GDPS_Albedo_Sfc_LatLon0.15_PT084H.grib2 2026-04-24 04:21 243K
20260424T00Z_MSC_GDPS_CAPE_Sfc_LatLon0.15_PT084H.grib2 2026-04-24 04:21 4.0M
20260424T00Z_MSC_GDPS_CIN_Sfc_LatLon0.15_PT084H.grib2 2026-04-24 04:21 3.0M
20260424T00Z_MSC_GDPS_CloudWater_EAtm_LatLon0.15_PT084H.grib2 2026-04-24 04:21 534K
20260424T00Z_MSC_GDPS_ConvectivePrecip-Accum_Sfc_LatLon0.15_PT084H.grib2 2026-04-24 04:21 3.2M
20260424T00Z_MSC_GDPS_DewPointDepression_AGL-2m_LatLon0.15_PT084H.grib2 2026-04-24 04:21 756K
20260424T00Z_MSC_GDPS_DewPointDepression_IsbL-0010_LatLon0.15_PT084H.grib2 2026-04-24 04:21 38K
20260424T00Z_MSC_GDPS_DewPointDepression_IsbL-0020_LatLon0.15_PT084H.grib2 2026-04-24 04:21 80K
20260424T00Z_MSC_GDPS_DewPointDepression_IsbL-0030_LatLon0.15_PT084H.grib2 2026-04-24 04:21 66K
20260424T00Z_MSC_GDPS_DewPointDepression_IsbL-0050_LatLon0.15_PT084H.grib2 2026-04-24 04:21 328K
20260424T00Z_MSC_GDPS_DewPointDepression_IsbL-0100_LatLon0.15_PT084H.grib2 2026-04-24 04:21 393K
20260424T00Z_MSC_GDPS_DewPointDepression_IsbL-0150_LatLon0.15_PT084H.grib2 2026-04-24 04:21 454K
20260424T00Z_MSC_GDPS_DewPointDepression_IsbL-0175_LatLon0.15_PT084H.grib2 2026-04-24 04:21 559K
20260424T00Z_MSC_GDPS_DewPointDepression_IsbL-0200_LatLon0.15_PT084H.grib2 2026-04-24 04:21 659K
20260424T00Z_MSC_GDPS_DewPointDepression_IsbL-0225_LatLon0.15_PT084H.grib2 2026-04-24 04:21 765K
20260424T00Z_MSC_GDPS_DewPointDepression_IsbL-0250_LatLon0.15_PT084H.grib2 2026-04-24 04:21 859K
20260424T00Z_MSC_GDPS_DewPointDepression_IsbL-0275_LatLon0.15_PT084H.grib2 2026-04-24 04:21 880K
20260424T00Z_MSC_GDPS_DewPointDepression_IsbL-0300_LatLon0.15_PT084H.grib2 2026-04-24 04:21 919K
20260424T00Z_MSC_GDPS_DewPointDepression_IsbL-0350_LatLon0.15_PT084H.grib2 2026-04-24 04:21 952K
20260424T00Z_MSC_GDPS_DewPointDepression_IsbL-0400_LatLon0.15_PT084H.grib2 2026-04-24 04:21 1.0M
20260424T00Z_MSC_GDPS_DewPointDepression_IsbL-0450_LatLon0.15_PT084H.grib2 2026-04-24 04:21 1.0M
20260424T00Z_MSC_GDPS_DewPointDepression_IsbL-0500_LatLon0.15_PT084H.grib2 2026-04-24 04:21 1.0M
20260424T00Z_MSC_GDPS_DewPointDepression_IsbL-0550_LatLon0.15_PT084H.grib2 2026-04-24 04:21 1.0M
20260424T00Z_MSC_GDPS_DewPointDepression_IsbL-0600_LatLon0.15_PT084H.grib2 2026-04-24 04:21 1.1M
20260424T00Z_MSC_GDPS_DewPointDepression_IsbL-0650_LatLon0.15_PT084H.grib2 2026-04-24 04:21 1.1M
20260424T00Z_MSC_GDPS_DewPointDepression_IsbL-0700_LatLon0.15_PT084H.grib2 2026-04-24 04:21 1.1M
20260424T00Z_MSC_GDPS_DewPointDepression_IsbL-0750_LatLon0.15_PT084H.grib2 2026-04-24 04:21 1.1M
20260424T00Z_MSC_GDPS_DewPointDepression_IsbL-0800_LatLon0.15_PT084H.grib2 2026-04-24 04:21 1.2M
20260424T00Z_MSC_GDPS_DewPointDepression_IsbL-0850_LatLon0.15_PT084H.grib2 2026-04-24 04:21 1.2M
20260424T00Z_MSC_GDPS_DewPointDepression_IsbL-0875_LatLon0.15_PT084H.grib2 2026-04-24 04:21 1.1M
20260424T00Z_MSC_GDPS_DewPointDepression_IsbL-0900_LatLon0.15_PT084H.grib2 2026-04-24 04:21 1.1M
20260424T00Z_MSC_GDPS_DewPointDepression_IsbL-0925_LatLon0.15_PT084H.grib2 2026-04-24 04:21 1.0M
20260424T00Z_MSC_GDPS_DewPointDepression_IsbL-0950_LatLon0.15_PT084H.grib2 2026-04-24 04:21 1.0M
20260424T00Z_MSC_GDPS_DewPointDepression_IsbL-0970_LatLon0.15_PT084H.grib2 2026-04-24 04:21 1.0M
20260424T00Z_MSC_GDPS_DewPointDepression_IsbL-0985_LatLon0.15_PT084H.grib2 2026-04-24 04:21 1.0M
20260424T00Z_MSC_GDPS_DewPointDepression_IsbL-1000_LatLon0.15_PT084H.grib2 2026-04-24 04:21 1.0M
20260424T00Z_MSC_GDPS_DewPointDepression_IsbL-1015_LatLon0.15_PT084H.grib2 2026-04-24 04:21 918K
20260424T00Z_MSC_GDPS_DewPoint_AGL-2m_LatLon0.15_PT084H.grib2 2026-04-24 04:21 611K
20260424T00Z_MSC_GDPS_DownwardLongwaveRadiationFlux-Accum_Sfc_LatLon0.15_PT084H.grib2 2026-04-24 04:21 696K
20260424T00Z_MSC_GDPS_DownwardShortwaveRadiationFlux-Accum_NTAtm_LatLon0.15_PT084H.grib2 2026-04-24 04:21 281K
20260424T00Z_MSC_GDPS_DownwardShortwaveRadiationFlux-Accum_Sfc_LatLon0.15_PT084H.grib2 2026-04-24 04:21 924K
20260424T00Z_MSC_GDPS_FreezingRain-Accum12h_Sfc_LatLon0.15_PT084H.grib2 2026-04-24 04:21 86K
20260424T00Z_MSC_GDPS_FreezingRain-Accum1h_Sfc_LatLon0.15_PT084H.grib2 2026-04-24 04:21 59K
20260424T00Z_MSC_GDPS_FreezingRain-Accum24h_Sfc_LatLon0.15_PT084H.grib2 2026-04-24 04:21 152K
20260424T00Z_MSC_GDPS_FreezingRain-Accum3h_Sfc_LatLon0.15_PT084H.grib2 2026-04-24 04:21 57K
20260424T00Z_MSC_GDPS_FreezingRain-Accum6h_Sfc_LatLon0.15_PT084H.grib2 2026-04-24 04:21 77K
20260424T00Z_MSC_GDPS_FreezingRain-Accum_Sfc_LatLon0.15_PT084H.grib2 2026-04-24 04:21 337K
20260424T00Z_MSC_GDPS_GeopotentialHeight_IsbL-0001_LatLon0.15_PT084H.grib2 2026-04-24 04:21 398K
20260424T00Z_MSC_GDPS_GeopotentialHeight_IsbL-0005_LatLon0.15_PT084H.grib2 2026-04-24 04:21 504K
20260424T00Z_MSC_GDPS_GeopotentialHeight_IsbL-0010_LatLon0.15_PT084H.grib2 2026-04-24 04:21 488K
20260424T00Z_MSC_GDPS_GeopotentialHeight_IsbL-0020_LatLon0.15_PT084H.grib2 2026-04-24 04:21 428K
20260424T00Z_MSC_GDPS_GeopotentialHeight_IsbL-0030_LatLon0.15_PT084H.grib2 2026-04-24 04:21 584K
20260424T00Z_MSC_GDPS_GeopotentialHeight_IsbL-0050_LatLon0.15_PT084H.grib2 2026-04-24 04:21 577K
20260424T00Z_MSC_GDPS_GeopotentialHeight_IsbL-0100_LatLon0.15_PT084H.grib2 2026-04-24 04:21 609K
20260424T00Z_MSC_GDPS_GeopotentialHeight_IsbL-0150_LatLon0.15_PT084H.grib2 2026-04-24 04:21 626K
20260424T00Z_MSC_GDPS_GeopotentialHeight_IsbL-0175_LatLon0.15_PT084H.grib2 2026-04-24 04:21 629K
20260424T00Z_MSC_GDPS_GeopotentialHeight_IsbL-0200_LatLon0.15_PT084H.grib2 2026-04-24 04:21 634K
20260424T00Z_MSC_GDPS_GeopotentialHeight_IsbL-0225_LatLon0.15_PT084H.grib2 2026-04-24 04:21 632K
20260424T00Z_MSC_GDPS_GeopotentialHeight_IsbL-0250_LatLon0.15_PT084H.grib2 2026-04-24 04:21 642K
20260424T00Z_MSC_GDPS_GeopotentialHeight_IsbL-0275_LatLon0.15_PT084H.grib2 2026-04-24 04:21 643K
20260424T00Z_MSC_GDPS_GeopotentialHeight_IsbL-0300_LatLon0.15_PT084H.grib2 2026-04-24 04:21 644K
20260424T00Z_MSC_GDPS_GeopotentialHeight_IsbL-0350_LatLon0.15_PT084H.grib2 2026-04-24 04:21 636K
20260424T00Z_MSC_GDPS_GeopotentialHeight_IsbL-0400_LatLon0.15_PT084H.grib2 2026-04-24 04:21 628K
20260424T00Z_MSC_GDPS_GeopotentialHeight_IsbL-0450_LatLon0.15_PT084H.grib2 2026-04-24 04:21 617K
20260424T00Z_MSC_GDPS_GeopotentialHeight_IsbL-0500_LatLon0.15_PT084H.grib2 2026-04-24 04:21 607K
20260424T00Z_MSC_GDPS_GeopotentialHeight_IsbL-0550_LatLon0.15_PT084H.grib2 2026-04-24 04:21 529K
20260424T00Z_MSC_GDPS_GeopotentialHeight_IsbL-0600_LatLon0.15_PT084H.grib2 2026-04-24 04:21 524K
20260424T00Z_MSC_GDPS_GeopotentialHeight_IsbL-0650_LatLon0.15_PT084H.grib2 2026-04-24 04:21 524K
20260424T00Z_MSC_GDPS_GeopotentialHeight_IsbL-0700_LatLon0.15_PT084H.grib2 2026-04-24 04:21 693K
20260424T00Z_MSC_GDPS_GeopotentialHeight_IsbL-0750_LatLon0.15_PT084H.grib2 2026-04-24 04:21 692K
20260424T00Z_MSC_GDPS_GeopotentialHeight_IsbL-0800_LatLon0.15_PT084H.grib2 2026-04-24 04:21 705K
20260424T00Z_MSC_GDPS_GeopotentialHeight_IsbL-0850_LatLon0.15_PT084H.grib2 2026-04-24 04:21 709K
20260424T00Z_MSC_GDPS_GeopotentialHeight_IsbL-0875_LatLon0.15_PT084H.grib2 2026-04-24 04:21 714K
20260424T00Z_MSC_GDPS_GeopotentialHeight_IsbL-0900_LatLon0.15_PT084H.grib2 2026-04-24 04:21 724K
20260424T00Z_MSC_GDPS_GeopotentialHeight_IsbL-0925_LatLon0.15_PT084H.grib2 2026-04-24 04:21 732K
20260424T00Z_MSC_GDPS_GeopotentialHeight_IsbL-0950_LatLon0.15_PT084H.grib2 2026-04-24 04:21 735K
20260424T00Z_MSC_GDPS_GeopotentialHeight_IsbL-0970_LatLon0.15_PT084H.grib2 2026-04-24 04:21 749K
20260424T00Z_MSC_GDPS_GeopotentialHeight_IsbL-0985_LatLon0.15_PT084H.grib2 2026-04-24 04:21 766K
20260424T00Z_MSC_GDPS_GeopotentialHeight_IsbL-1000_LatLon0.15_PT084H.grib2 2026-04-24 04:21 789K
20260424T00Z_MSC_GDPS_GeopotentialHeight_IsbL-1015_LatLon0.15_PT084H.grib2 2026-04-24 04:21 813K
20260424T00Z_MSC_GDPS_Humidex_Sfc_LatLon0.15_PT084H.grib2 2026-04-24 04:21 5.3M
20260424T00Z_MSC_GDPS_IcePellets-Accum12h_Sfc_LatLon0.15_PT084H.grib2 2026-04-24 04:21 25K
20260424T00Z_MSC_GDPS_IcePellets-Accum1h_Sfc_LatLon0.15_PT084H.grib2 2026-04-24 04:21 24K
20260424T00Z_MSC_GDPS_IcePellets-Accum24h_Sfc_LatLon0.15_PT084H.grib2 2026-04-24 04:21 37K
20260424T00Z_MSC_GDPS_IcePellets-Accum3h_Sfc_LatLon0.15_PT084H.grib2 2026-04-24 04:21 26K
20260424T00Z_MSC_GDPS_IcePellets-Accum6h_Sfc_LatLon0.15_PT084H.grib2 2026-04-24 04:21 28K
20260424T00Z_MSC_GDPS_IcePellets-Accum_Sfc_LatLon0.15_PT084H.grib2 2026-04-24 04:21 121K
20260424T00Z_MSC_GDPS_KIndex_Sfc_LatLon0.15_PT084H.grib2 2026-04-24 04:21 6.5M
20260424T00Z_MSC_GDPS_LatentHeatNetFlux_Sfc_LatLon0.15_PT084H.grib2 2026-04-24 04:21 718K
20260424T00Z_MSC_GDPS_LiftedIndex-MU-VT_IsbL-0500_LatLon0.15_PT084H.grib2 2026-04-24 04:21 5.4M
20260424T00Z_MSC_GDPS_NetLongwaveRadiationFlux-Accum_Sfc_LatLon0.15_PT084H.grib2 2026-04-24 04:21 925K
20260424T00Z_MSC_GDPS_NetShortwaveRadiationFlux-Accum_Sfc_LatLon0.15_PT084H.grib2 2026-04-24 04:21 910K
20260424T00Z_MSC_GDPS_O3MixingRatio_LatLon0.15_PT084H.grib2 2026-04-24 04:51 1.9M
20260424T00Z_MSC_GDPS_O3_EAtm_LatLon0.15_PT084H.grib2 2026-04-24 04:51 2.5M
20260424T00Z_MSC_GDPS_PlanetaryBoundaryLayerHeight_Sfc_LatLon0.15_PT084H.grib2 2026-04-24 04:21 2.5M
20260424T00Z_MSC_GDPS_Precip-Accum12h_Sfc_LatLon0.15_PT084H.grib2 2026-04-24 04:21 4.1M
20260424T00Z_MSC_GDPS_Precip-Accum1h_Sfc_LatLon0.15_PT084H.grib2 2026-04-24 04:21 3.3M
20260424T00Z_MSC_GDPS_Precip-Accum24h_Sfc_LatLon0.15_PT084H.grib2 2026-04-24 04:21 4.6M
20260424T00Z_MSC_GDPS_Precip-Accum3h_Sfc_LatLon0.15_PT084H.grib2 2026-04-24 04:21 3.6M
20260424T00Z_MSC_GDPS_Precip-Accum6h_Sfc_LatLon0.15_PT084H.grib2 2026-04-24 04:21 3.9M
20260424T00Z_MSC_GDPS_Precip-Accum_Sfc_LatLon0.15_PT084H.grib2 2026-04-24 04:21 5.3M
20260424T00Z_MSC_GDPS_PrecipRate_Sfc_LatLon0.15_PT084H.grib2 2026-04-24 04:21 3.1M
20260424T00Z_MSC_GDPS_PrecipType-Instant_Sfc_LatLon0.15_PT084H.grib2 2026-04-24 04:21 1.6M
20260424T00Z_MSC_GDPS_Pressure_MSL_LatLon0.15_PT084H.grib2 2026-04-24 04:21 726K
20260424T00Z_MSC_GDPS_Pressure_PVU-1.5_LatLon0.15_PT084H.grib2 2026-04-24 04:21 5.8M
20260424T00Z_MSC_GDPS_Pressure_PVU-1_LatLon0.15_PT084H.grib2 2026-04-24 04:21 6.0M
20260424T00Z_MSC_GDPS_Pressure_PVU-2_LatLon0.15_PT084H.grib2 2026-04-24 04:21 5.6M
20260424T00Z_MSC_GDPS_Pressure_Sfc_LatLon0.15_PT084H.grib2 2026-04-24 04:21 1.1M
20260424T00Z_MSC_GDPS_RadiativeTemp_Sfc_LatLon0.15_PT084H.grib2 2026-04-24 04:21 502K
20260424T00Z_MSC_GDPS_Rain-Accum12h_Sfc_LatLon0.15_PT084H.grib2 2026-04-24 04:21 2.8M
20260424T00Z_MSC_GDPS_Rain-Accum1h_Sfc_LatLon0.15_PT084H.grib2 2026-04-24 04:21 1.7M
20260424T00Z_MSC_GDPS_Rain-Accum24h_Sfc_LatLon0.15_PT084H.grib2 2026-04-24 04:21 3.2M
20260424T00Z_MSC_GDPS_Rain-Accum3h_Sfc_LatLon0.15_PT084H.grib2 2026-04-24 04:21 1.9M
20260424T00Z_MSC_GDPS_Rain-Accum6h_Sfc_LatLon0.15_PT084H.grib2 2026-04-24 04:21 2.5M
20260424T00Z_MSC_GDPS_Rain-Accum_Sfc_LatLon0.15_PT084H.grib2 2026-04-24 04:21 4.0M
20260424T00Z_MSC_GDPS_RelativeHumidity_AGL-2m_LatLon0.15_PT084H.grib2 2026-04-24 04:21 1.1M
20260424T00Z_MSC_GDPS_RelativeHumidity_IsbL-0010_LatLon0.15_PT084H.grib2 2026-04-24 04:21 258K
20260424T00Z_MSC_GDPS_RelativeHumidity_IsbL-0020_LatLon0.15_PT084H.grib2 2026-04-24 04:21 272K
20260424T00Z_MSC_GDPS_RelativeHumidity_IsbL-0030_LatLon0.15_PT084H.grib2 2026-04-24 04:21 347K
20260424T00Z_MSC_GDPS_RelativeHumidity_IsbL-0050_LatLon0.15_PT084H.grib2 2026-04-24 04:21 415K
20260424T00Z_MSC_GDPS_RelativeHumidity_IsbL-0100_LatLon0.15_PT084H.grib2 2026-04-24 04:21 491K
20260424T00Z_MSC_GDPS_RelativeHumidity_IsbL-0150_LatLon0.15_PT084H.grib2 2026-04-24 04:21 647K
20260424T00Z_MSC_GDPS_RelativeHumidity_IsbL-0175_LatLon0.15_PT084H.grib2 2026-04-24 04:21 781K
20260424T00Z_MSC_GDPS_RelativeHumidity_IsbL-0200_LatLon0.15_PT084H.grib2 2026-04-24 04:21 697K
20260424T00Z_MSC_GDPS_RelativeHumidity_IsbL-0225_LatLon0.15_PT084H.grib2 2026-04-24 04:21 781K
20260424T00Z_MSC_GDPS_RelativeHumidity_IsbL-0250_LatLon0.15_PT084H.grib2 2026-04-24 04:21 862K
20260424T00Z_MSC_GDPS_RelativeHumidity_IsbL-0275_LatLon0.15_PT084H.grib2 2026-04-24 04:21 886K
20260424T00Z_MSC_GDPS_RelativeHumidity_IsbL-0300_LatLon0.15_PT084H.grib2 2026-04-24 04:21 925K
20260424T00Z_MSC_GDPS_RelativeHumidity_IsbL-0350_LatLon0.15_PT084H.grib2 2026-04-24 04:21 947K
20260424T00Z_MSC_GDPS_RelativeHumidity_IsbL-0400_LatLon0.15_PT084H.grib2 2026-04-24 04:21 1.0M
20260424T00Z_MSC_GDPS_RelativeHumidity_IsbL-0450_LatLon0.15_PT084H.grib2 2026-04-24 04:21 1.0M
20260424T00Z_MSC_GDPS_RelativeHumidity_IsbL-0500_LatLon0.15_PT084H.grib2 2026-04-24 04:21 1.0M
20260424T00Z_MSC_GDPS_RelativeHumidity_IsbL-0550_LatLon0.15_PT084H.grib2 2026-04-24 04:21 1.0M
20260424T00Z_MSC_GDPS_RelativeHumidity_IsbL-0600_LatLon0.15_PT084H.grib2 2026-04-24 04:21 1.1M
20260424T00Z_MSC_GDPS_RelativeHumidity_IsbL-0650_LatLon0.15_PT084H.grib2 2026-04-24 04:21 1.1M
20260424T00Z_MSC_GDPS_RelativeHumidity_IsbL-0700_LatLon0.15_PT084H.grib2 2026-04-24 04:21 1.2M
20260424T00Z_MSC_GDPS_RelativeHumidity_IsbL-0750_LatLon0.15_PT084H.grib2 2026-04-24 04:21 1.2M
20260424T00Z_MSC_GDPS_RelativeHumidity_IsbL-0800_LatLon0.15_PT084H.grib2 2026-04-24 04:21 1.3M
20260424T00Z_MSC_GDPS_RelativeHumidity_IsbL-0850_LatLon0.15_PT084H.grib2 2026-04-24 04:21 1.3M
20260424T00Z_MSC_GDPS_RelativeHumidity_IsbL-0875_LatLon0.15_PT084H.grib2 2026-04-24 04:21 1.3M
20260424T00Z_MSC_GDPS_RelativeHumidity_IsbL-0900_LatLon0.15_PT084H.grib2 2026-04-24 04:21 1.2M
20260424T00Z_MSC_GDPS_RelativeHumidity_IsbL-0925_LatLon0.15_PT084H.grib2 2026-04-24 04:21 1.2M
20260424T00Z_MSC_GDPS_RelativeHumidity_IsbL-0950_LatLon0.15_PT084H.grib2 2026-04-24 04:21 1.2M
20260424T00Z_MSC_GDPS_RelativeHumidity_IsbL-0970_LatLon0.15_PT084H.grib2 2026-04-24 04:21 1.2M
20260424T00Z_MSC_GDPS_RelativeHumidity_IsbL-0985_LatLon0.15_PT084H.grib2 2026-04-24 04:21 1.1M
20260424T00Z_MSC_GDPS_RelativeHumidity_IsbL-1000_LatLon0.15_PT084H.grib2 2026-04-24 04:21 1.1M
20260424T00Z_MSC_GDPS_RelativeHumidity_IsbL-1015_LatLon0.15_PT084H.grib2 2026-04-24 04:21 1.1M
20260424T00Z_MSC_GDPS_RelativeVorticity_IsbL-0200_LatLon0.15_PT084H.grib2 2026-04-24 04:21 1.5M
20260424T00Z_MSC_GDPS_RelativeVorticity_IsbL-0250_LatLon0.15_PT084H.grib2 2026-04-24 04:21 1.3M
20260424T00Z_MSC_GDPS_RelativeVorticity_IsbL-0500_LatLon0.15_PT084H.grib2 2026-04-24 04:21 1.4M
20260424T00Z_MSC_GDPS_RelativeVorticity_IsbL-0700_LatLon0.15_PT084H.grib2 2026-04-24 04:21 1.6M
20260424T00Z_MSC_GDPS_RelativeVorticity_IsbL-0850_LatLon0.15_PT084H.grib2 2026-04-24 04:21 1.6M
20260424T00Z_MSC_GDPS_Runoff-Accum_Sfc_LatLon0.15_PT084H.grib2 2026-04-24 04:21 113K
20260424T00Z_MSC_GDPS_SensibleHeatNetFlux_Sfc_LatLon0.15_PT084H.grib2 2026-04-24 04:21 486K
20260424T00Z_MSC_GDPS_ShowalterIndex_IsbL-0500_LatLon0.15_PT084H.grib2 2026-04-24 04:21 6.2M
20260424T00Z_MSC_GDPS_Snow-Accum12h_Sfc_LatLon0.15_PT084H.grib2 2026-04-24 04:21 1.4M
20260424T00Z_MSC_GDPS_Snow-Accum1h_Sfc_LatLon0.15_PT084H.grib2 2026-04-24 04:21 1.0M
20260424T00Z_MSC_GDPS_Snow-Accum24h_Sfc_LatLon0.15_PT084H.grib2 2026-04-24 04:21 1.6M
20260424T00Z_MSC_GDPS_Snow-Accum3h_Sfc_LatLon0.15_PT084H.grib2 2026-04-24 04:21 956K
20260424T00Z_MSC_GDPS_Snow-Accum6h_Sfc_LatLon0.15_PT084H.grib2 2026-04-24 04:21 1.3M
20260424T00Z_MSC_GDPS_Snow-Accum_Sfc_LatLon0.15_PT084H.grib2 2026-04-24 04:21 2.0M
20260424T00Z_MSC_GDPS_SnowDensity_Sfc_LatLon0.15_PT084H.grib2 2026-04-24 04:21 270K
20260424T00Z_MSC_GDPS_SnowDepth_Sfc_LatLon0.15_PT084H.grib2 2026-04-24 04:21 1.8M
20260424T00Z_MSC_GDPS_SoilTemp_DBS-0to10cm_LatLon0.15_PT084H.grib2 2026-04-24 04:21 509K
20260424T00Z_MSC_GDPS_SoilTemp_Sfc_LatLon0.15_PT084H.grib2 2026-04-24 04:21 589K
20260424T00Z_MSC_GDPS_SoilVolumetricIceContent_Sfc_LatLon0.15_PT084H.grib2 2026-04-24 04:21 213K
20260424T00Z_MSC_GDPS_SoilVolumetricWaterContent_DBS-0to10cm_LatLon0.15_PT084H.grib2 2026-04-24 04:21 572K
20260424T00Z_MSC_GDPS_SoilVolumetricWaterContent_DBS-0to1cm_LatLon0.15_PT084H.grib2 2026-04-24 04:21 650K
20260424T00Z_MSC_GDPS_SpecificHumidity_AGL-120m_LatLon0.15_PT084H.grib2 2026-04-24 04:21 1.1M
20260424T00Z_MSC_GDPS_SpecificHumidity_AGL-2m_LatLon0.15_PT084H.grib2 2026-04-24 04:21 1.2M
20260424T00Z_MSC_GDPS_SpecificHumidity_AGL-40m_LatLon0.15_PT084H.grib2 2026-04-24 04:21 1.1M
20260424T00Z_MSC_GDPS_SpecificHumidity_AGL-80m_LatLon0.15_PT084H.grib2 2026-04-24 04:21 1.1M
20260424T00Z_MSC_GDPS_SpecificHumidity_IsbL-0001_LatLon0.15_PT084H.grib2 2026-04-24 04:21 1.2M
20260424T00Z_MSC_GDPS_SpecificHumidity_IsbL-0005_LatLon0.15_PT084H.grib2 2026-04-24 04:21 1.5M
20260424T00Z_MSC_GDPS_SpecificHumidity_IsbL-0010_LatLon0.15_PT084H.grib2 2026-04-24 04:21 1.3M
20260424T00Z_MSC_GDPS_SpecificHumidity_IsbL-0020_LatLon0.15_PT084H.grib2 2026-04-24 04:21 1.3M
20260424T00Z_MSC_GDPS_SpecificHumidity_IsbL-0030_LatLon0.15_PT084H.grib2 2026-04-24 04:21 1.6M
20260424T00Z_MSC_GDPS_SpecificHumidity_IsbL-0050_LatLon0.15_PT084H.grib2 2026-04-24 04:21 1.3M
20260424T00Z_MSC_GDPS_SpecificHumidity_IsbL-0100_LatLon0.15_PT084H.grib2 2026-04-24 04:21 1.4M
20260424T00Z_MSC_GDPS_SpecificHumidity_IsbL-0150_LatLon0.15_PT084H.grib2 2026-04-24 04:21 1.2M
20260424T00Z_MSC_GDPS_SpecificHumidity_IsbL-0175_LatLon0.15_PT084H.grib2 2026-04-24 04:21 1.3M
20260424T00Z_MSC_GDPS_SpecificHumidity_IsbL-0200_LatLon0.15_PT084H.grib2 2026-04-24 04:21 1.3M
20260424T00Z_MSC_GDPS_SpecificHumidity_IsbL-0225_LatLon0.15_PT084H.grib2 2026-04-24 04:21 1.3M
20260424T00Z_MSC_GDPS_SpecificHumidity_IsbL-0250_LatLon0.15_PT084H.grib2 2026-04-24 04:21 1.4M
20260424T00Z_MSC_GDPS_SpecificHumidity_IsbL-0275_LatLon0.15_PT084H.grib2 2026-04-24 04:21 1.3M
20260424T00Z_MSC_GDPS_SpecificHumidity_IsbL-0300_LatLon0.15_PT084H.grib2 2026-04-24 04:21 1.2M
20260424T00Z_MSC_GDPS_SpecificHumidity_IsbL-0350_LatLon0.15_PT084H.grib2 2026-04-24 04:21 1.2M
20260424T00Z_MSC_GDPS_SpecificHumidity_IsbL-0400_LatLon0.15_PT084H.grib2 2026-04-24 04:21 1.5M
20260424T00Z_MSC_GDPS_SpecificHumidity_IsbL-0450_LatLon0.15_PT084H.grib2 2026-04-24 04:21 1.6M
20260424T00Z_MSC_GDPS_SpecificHumidity_IsbL-0500_LatLon0.15_PT084H.grib2 2026-04-24 04:21 1.4M
20260424T00Z_MSC_GDPS_SpecificHumidity_IsbL-0550_LatLon0.15_PT084H.grib2 2026-04-24 04:21 1.6M
20260424T00Z_MSC_GDPS_SpecificHumidity_IsbL-0600_LatLon0.15_PT084H.grib2 2026-04-24 04:21 1.7M
20260424T00Z_MSC_GDPS_SpecificHumidity_IsbL-0650_LatLon0.15_PT084H.grib2 2026-04-24 04:21 1.5M
20260424T00Z_MSC_GDPS_SpecificHumidity_IsbL-0700_LatLon0.15_PT084H.grib2 2026-04-24 04:21 1.6M
20260424T00Z_MSC_GDPS_SpecificHumidity_IsbL-0750_LatLon0.15_PT084H.grib2 2026-04-24 04:21 1.7M
20260424T00Z_MSC_GDPS_SpecificHumidity_IsbL-0800_LatLon0.15_PT084H.grib2 2026-04-24 04:21 1.9M
20260424T00Z_MSC_GDPS_SpecificHumidity_IsbL-0850_LatLon0.15_PT084H.grib2 2026-04-24 04:21 1.9M
20260424T00Z_MSC_GDPS_SpecificHumidity_IsbL-0875_LatLon0.15_PT084H.grib2 2026-04-24 04:21 1.9M
20260424T00Z_MSC_GDPS_SpecificHumidity_IsbL-0900_LatLon0.15_PT084H.grib2 2026-04-24 04:21 1.6M
20260424T00Z_MSC_GDPS_SpecificHumidity_IsbL-0925_LatLon0.15_PT084H.grib2 2026-04-24 04:21 1.6M
20260424T00Z_MSC_GDPS_SpecificHumidity_IsbL-0950_LatLon0.15_PT084H.grib2 2026-04-24 04:21 1.5M
20260424T00Z_MSC_GDPS_SpecificHumidity_IsbL-0970_LatLon0.15_PT084H.grib2 2026-04-24 04:21 1.5M
20260424T00Z_MSC_GDPS_SpecificHumidity_IsbL-0985_LatLon0.15_PT084H.grib2 2026-04-24 04:21 1.5M
20260424T00Z_MSC_GDPS_SpecificHumidity_IsbL-1000_LatLon0.15_PT084H.grib2 2026-04-24 04:21 1.5M
20260424T00Z_MSC_GDPS_SpecificHumidity_IsbL-1015_LatLon0.15_PT084H.grib2 2026-04-24 04:21 1.4M
20260424T00Z_MSC_GDPS_SpecificHumidity_Sfc_LatLon0.15_PT084H.grib2 2026-04-24 04:21 675K
20260424T00Z_MSC_GDPS_Thickness_IsbL-0850to0700_LatLon0.15_PT084H.grib2 2026-04-24 04:21 468K
20260424T00Z_MSC_GDPS_Thickness_IsbL-1000to0500_LatLon0.15_PT084H.grib2 2026-04-24 04:21 369K
20260424T00Z_MSC_GDPS_Thickness_IsbL-1000to0850_LatLon0.15_PT084H.grib2 2026-04-24 04:21 489K
20260424T00Z_MSC_GDPS_TotalCloudCover_Sfc_LatLon0.15_PT084H.grib2 2026-04-24 04:21 842K
20260424T00Z_MSC_GDPS_TotalTotalsIndex_Sfc_LatLon0.15_PT084H.grib2 2026-04-24 04:21 6.2M
20260424T00Z_MSC_GDPS_UVIndex-ClearSky_Sfc_LatLon0.15_PT084H.grib2 2026-04-24 04:51 1.0M
20260424T00Z_MSC_GDPS_UVIndex_Sfc_LatLon0.15_PT084H.grib2 2026-04-24 04:51 1.5M
20260424T00Z_MSC_GDPS_UpwardLongwaveRadiationFlux_NTAtm_LatLon0.15_PT084H.grib2 2026-04-24 04:21 843K
20260424T00Z_MSC_GDPS_VerticalVelocity_IsbL-0200_LatLon0.15_PT084H.grib2 2026-04-24 04:21 1.2M
20260424T00Z_MSC_GDPS_VerticalVelocity_IsbL-0250_LatLon0.15_PT084H.grib2 2026-04-24 04:21 1.0M
20260424T00Z_MSC_GDPS_VerticalVelocity_IsbL-0500_LatLon0.15_PT084H.grib2 2026-04-24 04:21 1.3M
20260424T00Z_MSC_GDPS_VerticalVelocity_IsbL-0600_LatLon0.15_PT084H.grib2 2026-04-24 04:21 1.3M
20260424T00Z_MSC_GDPS_VerticalVelocity_IsbL-0700_LatLon0.15_PT084H.grib2 2026-04-24 04:21 1.1M
20260424T00Z_MSC_GDPS_VerticalVelocity_IsbL-0850_LatLon0.15_PT084H.grib2 2026-04-24 04:21 1.3M
20260424T00Z_MSC_GDPS_WindChill_Sfc_LatLon0.15_PT084H.grib2 2026-04-24 04:21 5.3M
20260424T00Z_MSC_GDPS_WindDir_AGL-10m_LatLon0.15_PT084H.grib2 2026-04-24 04:21 1.3M
20260424T00Z_MSC_GDPS_WindDir_AGL-120m_LatLon0.15_PT084H.grib2 2026-04-24 04:21 1.4M
20260424T00Z_MSC_GDPS_WindDir_AGL-40m_LatLon0.15_PT084H.grib2 2026-04-24 04:21 1.4M
20260424T00Z_MSC_GDPS_WindDir_AGL-80m_LatLon0.15_PT084H.grib2 2026-04-24 04:21 1.4M
20260424T00Z_MSC_GDPS_WindDir_IsbL-0001_LatLon0.15_PT084H.grib2 2026-04-24 04:21 657K
20260424T00Z_MSC_GDPS_WindDir_IsbL-0005_LatLon0.15_PT084H.grib2 2026-04-24 04:21 784K
20260424T00Z_MSC_GDPS_WindDir_IsbL-0010_LatLon0.15_PT084H.grib2 2026-04-24 04:21 849K
20260424T00Z_MSC_GDPS_WindDir_IsbL-0020_LatLon0.15_PT084H.grib2 2026-04-24 04:21 934K
20260424T00Z_MSC_GDPS_WindDir_IsbL-0030_LatLon0.15_PT084H.grib2 2026-04-24 04:21 926K
20260424T00Z_MSC_GDPS_WindDir_IsbL-0050_LatLon0.15_PT084H.grib2 2026-04-24 04:21 951K
20260424T00Z_MSC_GDPS_WindDir_IsbL-0100_LatLon0.15_PT084H.grib2 2026-04-24 04:21 1.0M
20260424T00Z_MSC_GDPS_WindDir_IsbL-0150_LatLon0.15_PT084H.grib2 2026-04-24 04:21 1.0M
20260424T00Z_MSC_GDPS_WindDir_IsbL-0175_LatLon0.15_PT084H.grib2 2026-04-24 04:21 1.0M
20260424T00Z_MSC_GDPS_WindDir_IsbL-0200_LatLon0.15_PT084H.grib2 2026-04-24 04:21 1.1M
20260424T00Z_MSC_GDPS_WindDir_IsbL-0225_LatLon0.15_PT084H.grib2 2026-04-24 04:21 1.1M
20260424T00Z_MSC_GDPS_WindDir_IsbL-0250_LatLon0.15_PT084H.grib2 2026-04-24 04:21 1.1M
20260424T00Z_MSC_GDPS_WindDir_IsbL-0275_LatLon0.15_PT084H.grib2 2026-04-24 04:21 1.2M
20260424T00Z_MSC_GDPS_WindDir_IsbL-0300_LatLon0.15_PT084H.grib2 2026-04-24 04:21 1.2M
20260424T00Z_MSC_GDPS_WindDir_IsbL-0350_LatLon0.15_PT084H.grib2 2026-04-24 04:21 1.2M
20260424T00Z_MSC_GDPS_WindDir_IsbL-0400_LatLon0.15_PT084H.grib2 2026-04-24 04:21 1.2M
20260424T00Z_MSC_GDPS_WindDir_IsbL-0450_LatLon0.15_PT084H.grib2 2026-04-24 04:21 1.3M
20260424T00Z_MSC_GDPS_WindDir_IsbL-0500_LatLon0.15_PT084H.grib2 2026-04-24 04:21 1.3M
20260424T00Z_MSC_GDPS_WindDir_IsbL-0550_LatLon0.15_PT084H.grib2 2026-04-24 04:21 1.4M
20260424T00Z_MSC_GDPS_WindDir_IsbL-0600_LatLon0.15_PT084H.grib2 2026-04-24 04:21 1.4M
20260424T00Z_MSC_GDPS_WindDir_IsbL-0650_LatLon0.15_PT084H.grib2 2026-04-24 04:21 1.5M
20260424T00Z_MSC_GDPS_WindDir_IsbL-0700_LatLon0.15_PT084H.grib2 2026-04-24 04:21 1.6M
20260424T00Z_MSC_GDPS_WindDir_IsbL-0750_LatLon0.15_PT084H.grib2 2026-04-24 04:21 1.7M
20260424T00Z_MSC_GDPS_WindDir_IsbL-0800_LatLon0.15_PT084H.grib2 2026-04-24 04:21 1.8M
20260424T00Z_MSC_GDPS_WindDir_IsbL-0850_LatLon0.15_PT084H.grib2 2026-04-24 04:21 1.9M
20260424T00Z_MSC_GDPS_WindDir_IsbL-0875_LatLon0.15_PT084H.grib2 2026-04-24 04:21 1.9M
20260424T00Z_MSC_GDPS_WindDir_IsbL-0900_LatLon0.15_PT084H.grib2 2026-04-24 04:21 2.0M
20260424T00Z_MSC_GDPS_WindDir_IsbL-0925_LatLon0.15_PT084H.grib2 2026-04-24 04:21 2.0M
20260424T00Z_MSC_GDPS_WindDir_IsbL-0950_LatLon0.15_PT084H.grib2 2026-04-24 04:21 2.0M
20260424T00Z_MSC_GDPS_WindDir_IsbL-0970_LatLon0.15_PT084H.grib2 2026-04-24 04:21 2.0M
20260424T00Z_MSC_GDPS_WindDir_IsbL-0985_LatLon0.15_PT084H.grib2 2026-04-24 04:21 2.0M
20260424T00Z_MSC_GDPS_WindDir_IsbL-1000_LatLon0.15_PT084H.grib2 2026-04-24 04:21 2.1M
20260424T00Z_MSC_GDPS_WindDir_IsbL-1015_LatLon0.15_PT084H.grib2 2026-04-24 04:21 2.0M
20260424T00Z_MSC_GDPS_WindGust-Max_AGL-10m_LatLon0.15_PT084H.grib2 2026-04-24 04:21 2.2M
20260424T00Z_MSC_GDPS_WindGust-Min_AGL-10m_LatLon0.15_PT084H.grib2 2026-04-24 04:21 2.2M
20260424T00Z_MSC_GDPS_WindGust_AGL-10m_LatLon0.15_PT084H.grib2 2026-04-24 04:21 2.2M
20260424T00Z_MSC_GDPS_WindSpeed_AGL-10m_LatLon0.15_PT084H.grib2 2026-04-24 04:21 1.1M
20260424T00Z_MSC_GDPS_WindSpeed_AGL-120m_LatLon0.15_PT084H.grib2 2026-04-24 04:21 1.2M
20260424T00Z_MSC_GDPS_WindSpeed_AGL-40m_LatLon0.15_PT084H.grib2 2026-04-24 04:21 1.2M
20260424T00Z_MSC_GDPS_WindSpeed_AGL-80m_LatLon0.15_PT084H.grib2 2026-04-24 04:21 1.2M
20260424T00Z_MSC_GDPS_WindSpeed_IsbL-0001_LatLon0.15_PT084H.grib2 2026-04-24 04:21 642K
20260424T00Z_MSC_GDPS_WindSpeed_IsbL-0005_LatLon0.15_PT084H.grib2 2026-04-24 04:21 613K
20260424T00Z_MSC_GDPS_WindSpeed_IsbL-0010_LatLon0.15_PT084H.grib2 2026-04-24 04:21 627K
20260424T00Z_MSC_GDPS_WindSpeed_IsbL-0020_LatLon0.15_PT084H.grib2 2026-04-24 04:21 859K
20260424T00Z_MSC_GDPS_WindSpeed_IsbL-0030_LatLon0.15_PT084H.grib2 2026-04-24 04:21 859K
20260424T00Z_MSC_GDPS_WindSpeed_IsbL-0050_LatLon0.15_PT084H.grib2 2026-04-24 04:21 1.0M
20260424T00Z_MSC_GDPS_WindSpeed_IsbL-0100_LatLon0.15_PT084H.grib2 2026-04-24 04:21 1.1M
20260424T00Z_MSC_GDPS_WindSpeed_IsbL-0150_LatLon0.15_PT084H.grib2 2026-04-24 04:21 1.0M
20260424T00Z_MSC_GDPS_WindSpeed_IsbL-0175_LatLon0.15_PT084H.grib2 2026-04-24 04:21 1.0M
20260424T00Z_MSC_GDPS_WindSpeed_IsbL-0200_LatLon0.15_PT084H.grib2 2026-04-24 04:21 1.0M
20260424T00Z_MSC_GDPS_WindSpeed_IsbL-0225_LatLon0.15_PT084H.grib2 2026-04-24 04:21 1.1M
20260424T00Z_MSC_GDPS_WindSpeed_IsbL-0250_LatLon0.15_PT084H.grib2 2026-04-24 04:21 1.1M
20260424T00Z_MSC_GDPS_WindSpeed_IsbL-0275_LatLon0.15_PT084H.grib2 2026-04-24 04:21 1.1M
20260424T00Z_MSC_GDPS_WindSpeed_IsbL-0300_LatLon0.15_PT084H.grib2 2026-04-24 04:21 1.1M
20260424T00Z_MSC_GDPS_WindSpeed_IsbL-0350_LatLon0.15_PT084H.grib2 2026-04-24 04:21 1.1M
20260424T00Z_MSC_GDPS_WindSpeed_IsbL-0400_LatLon0.15_PT084H.grib2 2026-04-24 04:21 1.1M
20260424T00Z_MSC_GDPS_WindSpeed_IsbL-0450_LatLon0.15_PT084H.grib2 2026-04-24 04:21 1.1M
20260424T00Z_MSC_GDPS_WindSpeed_IsbL-0500_LatLon0.15_PT084H.grib2 2026-04-24 04:21 1.1M
20260424T00Z_MSC_GDPS_WindSpeed_IsbL-0550_LatLon0.15_PT084H.grib2 2026-04-24 04:21 1.1M
20260424T00Z_MSC_GDPS_WindSpeed_IsbL-0600_LatLon0.15_PT084H.grib2 2026-04-24 04:21 1.4M
20260424T00Z_MSC_GDPS_WindSpeed_IsbL-0650_LatLon0.15_PT084H.grib2 2026-04-24 04:21 1.4M
20260424T00Z_MSC_GDPS_WindSpeed_IsbL-0700_LatLon0.15_PT084H.grib2 2026-04-24 04:21 1.5M
20260424T00Z_MSC_GDPS_WindSpeed_IsbL-0750_LatLon0.15_PT084H.grib2 2026-04-24 04:21 1.6M
20260424T00Z_MSC_GDPS_WindSpeed_IsbL-0800_LatLon0.15_PT084H.grib2 2026-04-24 04:21 1.7M
20260424T00Z_MSC_GDPS_WindSpeed_IsbL-0850_LatLon0.15_PT084H.grib2 2026-04-24 04:21 1.7M
20260424T00Z_MSC_GDPS_WindSpeed_IsbL-0875_LatLon0.15_PT084H.grib2 2026-04-24 04:21 1.8M
20260424T00Z_MSC_GDPS_WindSpeed_IsbL-0900_LatLon0.15_PT084H.grib2 2026-04-24 04:21 1.8M
20260424T00Z_MSC_GDPS_WindSpeed_IsbL-0925_LatLon0.15_PT084H.grib2 2026-04-24 04:21 1.8M
20260424T00Z_MSC_GDPS_WindSpeed_IsbL-0950_LatLon0.15_PT084H.grib2 2026-04-24 04:21 1.9M
20260424T00Z_MSC_GDPS_WindSpeed_IsbL-0970_LatLon0.15_PT084H.grib2 2026-04-24 04:21 1.9M
20260424T00Z_MSC_GDPS_WindSpeed_IsbL-0985_LatLon0.15_PT084H.grib2 2026-04-24 04:21 1.9M
20260424T00Z_MSC_GDPS_WindSpeed_IsbL-1000_LatLon0.15_PT084H.grib2 2026-04-24 04:21 1.9M
20260424T00Z_MSC_GDPS_WindSpeed_IsbL-1015_LatLon0.15_PT084H.grib2 2026-04-24 04:21 1.8M
20260424T00Z_MSC_GDPS_WindU_AGL-10m_LatLon0.15_PT084H.grib2 2026-04-24 04:21 1.3M
20260424T00Z_MSC_GDPS_WindU_AGL-120m_LatLon0.15_PT084H.grib2 2026-04-24 04:21 1.0M
20260424T00Z_MSC_GDPS_WindU_AGL-40m_LatLon0.15_PT084H.grib2 2026-04-24 04:21 971K
20260424T00Z_MSC_GDPS_WindU_AGL-80m_LatLon0.15_PT084H.grib2 2026-04-24 04:21 1.0M
20260424T00Z_MSC_GDPS_WindU_IsbL-0001_LatLon0.15_PT084H.grib2 2026-04-24 04:21 500K
20260424T00Z_MSC_GDPS_WindU_IsbL-0005_LatLon0.15_PT084H.grib2 2026-04-24 04:21 690K
20260424T00Z_MSC_GDPS_WindU_IsbL-0010_LatLon0.15_PT084H.grib2 2026-04-24 04:21 703K
20260424T00Z_MSC_GDPS_WindU_IsbL-0020_LatLon0.15_PT084H.grib2 2026-04-24 04:21 734K
20260424T00Z_MSC_GDPS_WindU_IsbL-0030_LatLon0.15_PT084H.grib2 2026-04-24 04:21 738K
20260424T00Z_MSC_GDPS_WindU_IsbL-0050_LatLon0.15_PT084H.grib2 2026-04-24 04:21 693K
20260424T00Z_MSC_GDPS_WindU_IsbL-0100_LatLon0.15_PT084H.grib2 2026-04-24 04:21 908K
20260424T00Z_MSC_GDPS_WindU_IsbL-0150_LatLon0.15_PT084H.grib2 2026-04-24 04:21 1.0M
20260424T00Z_MSC_GDPS_WindU_IsbL-0175_LatLon0.15_PT084H.grib2 2026-04-24 04:21 805K
20260424T00Z_MSC_GDPS_WindU_IsbL-0200_LatLon0.15_PT084H.grib2 2026-04-24 04:21 837K
20260424T00Z_MSC_GDPS_WindU_IsbL-0225_LatLon0.15_PT084H.grib2 2026-04-24 04:21 847K
20260424T00Z_MSC_GDPS_WindU_IsbL-0250_LatLon0.15_PT084H.grib2 2026-04-24 04:21 849K
20260424T00Z_MSC_GDPS_WindU_IsbL-0275_LatLon0.15_PT084H.grib2 2026-04-24 04:21 877K
20260424T00Z_MSC_GDPS_WindU_IsbL-0300_LatLon0.15_PT084H.grib2 2026-04-24 04:21 867K
20260424T00Z_MSC_GDPS_WindU_IsbL-0350_LatLon0.15_PT084H.grib2 2026-04-24 04:21 883K
20260424T00Z_MSC_GDPS_WindU_IsbL-0400_LatLon0.15_PT084H.grib2 2026-04-24 04:21 1.1M
20260424T00Z_MSC_GDPS_WindU_IsbL-0450_LatLon0.15_PT084H.grib2 2026-04-24 04:21 1.1M
20260424T00Z_MSC_GDPS_WindU_IsbL-0500_LatLon0.15_PT084H.grib2 2026-04-24 04:21 1.1M
20260424T00Z_MSC_GDPS_WindU_IsbL-0550_LatLon0.15_PT084H.grib2 2026-04-24 04:21 1.1M
20260424T00Z_MSC_GDPS_WindU_IsbL-0600_LatLon0.15_PT084H.grib2 2026-04-24 04:21 1.1M
20260424T00Z_MSC_GDPS_WindU_IsbL-0650_LatLon0.15_PT084H.grib2 2026-04-24 04:21 1.2M
20260424T00Z_MSC_GDPS_WindU_IsbL-0700_LatLon0.15_PT084H.grib2 2026-04-24 04:21 1.2M
20260424T00Z_MSC_GDPS_WindU_IsbL-0750_LatLon0.15_PT084H.grib2 2026-04-24 04:21 1.3M
20260424T00Z_MSC_GDPS_WindU_IsbL-0800_LatLon0.15_PT084H.grib2 2026-04-24 04:21 1.4M
20260424T00Z_MSC_GDPS_WindU_IsbL-0850_LatLon0.15_PT084H.grib2 2026-04-24 04:21 1.4M
20260424T00Z_MSC_GDPS_WindU_IsbL-0875_LatLon0.15_PT084H.grib2 2026-04-24 04:21 1.4M
20260424T00Z_MSC_GDPS_WindU_IsbL-0900_LatLon0.15_PT084H.grib2 2026-04-24 04:21 1.5M
20260424T00Z_MSC_GDPS_WindU_IsbL-0925_LatLon0.15_PT084H.grib2 2026-04-24 04:21 1.5M
20260424T00Z_MSC_GDPS_WindU_IsbL-0950_LatLon0.15_PT084H.grib2 2026-04-24 04:21 1.4M
20260424T00Z_MSC_GDPS_WindU_IsbL-0970_LatLon0.15_PT084H.grib2 2026-04-24 04:21 1.4M
20260424T00Z_MSC_GDPS_WindU_IsbL-0985_LatLon0.15_PT084H.grib2 2026-04-24 04:21 1.4M
20260424T00Z_MSC_GDPS_WindU_IsbL-1000_LatLon0.15_PT084H.grib2 2026-04-24 04:21 1.4M
20260424T00Z_MSC_GDPS_WindU_IsbL-1015_LatLon0.15_PT084H.grib2 2026-04-24 04:21 1.4M
20260424T00Z_MSC_GDPS_WindV_AGL-10m_LatLon0.15_PT084H.grib2 2026-04-24 04:21 1.3M
20260424T00Z_MSC_GDPS_WindV_AGL-120m_LatLon0.15_PT084H.grib2 2026-04-24 04:21 1.0M
20260424T00Z_MSC_GDPS_WindV_AGL-40m_LatLon0.15_PT084H.grib2 2026-04-24 04:21 970K
20260424T00Z_MSC_GDPS_WindV_AGL-80m_LatLon0.15_PT084H.grib2 2026-04-24 04:21 1.0M
20260424T00Z_MSC_GDPS_WindV_IsbL-0001_LatLon0.15_PT084H.grib2 2026-04-24 04:21 770K
20260424T00Z_MSC_GDPS_WindV_IsbL-0005_LatLon0.15_PT084H.grib2 2026-04-24 04:21 854K
20260424T00Z_MSC_GDPS_WindV_IsbL-0010_LatLon0.15_PT084H.grib2 2026-04-24 04:21 789K
20260424T00Z_MSC_GDPS_WindV_IsbL-0020_LatLon0.15_PT084H.grib2 2026-04-24 04:21 848K
20260424T00Z_MSC_GDPS_WindV_IsbL-0030_LatLon0.15_PT084H.grib2 2026-04-24 04:21 847K
20260424T00Z_MSC_GDPS_WindV_IsbL-0050_LatLon0.15_PT084H.grib2 2026-04-24 04:21 1.0M
20260424T00Z_MSC_GDPS_WindV_IsbL-0100_LatLon0.15_PT084H.grib2 2026-04-24 04:21 1.0M
20260424T00Z_MSC_GDPS_WindV_IsbL-0150_LatLon0.15_PT084H.grib2 2026-04-24 04:21 1.0M
20260424T00Z_MSC_GDPS_WindV_IsbL-0175_LatLon0.15_PT084H.grib2 2026-04-24 04:21 1.0M
20260424T00Z_MSC_GDPS_WindV_IsbL-0200_LatLon0.15_PT084H.grib2 2026-04-24 04:21 835K
20260424T00Z_MSC_GDPS_WindV_IsbL-0225_LatLon0.15_PT084H.grib2 2026-04-24 04:21 845K
20260424T00Z_MSC_GDPS_WindV_IsbL-0250_LatLon0.15_PT084H.grib2 2026-04-24 04:21 845K
20260424T00Z_MSC_GDPS_WindV_IsbL-0275_LatLon0.15_PT084H.grib2 2026-04-24 04:21 872K
20260424T00Z_MSC_GDPS_WindV_IsbL-0300_LatLon0.15_PT084H.grib2 2026-04-24 04:21 860K
20260424T00Z_MSC_GDPS_WindV_IsbL-0350_LatLon0.15_PT084H.grib2 2026-04-24 04:21 872K
20260424T00Z_MSC_GDPS_WindV_IsbL-0400_LatLon0.15_PT084H.grib2 2026-04-24 04:21 1.1M
20260424T00Z_MSC_GDPS_WindV_IsbL-0450_LatLon0.15_PT084H.grib2 2026-04-24 04:21 1.1M
20260424T00Z_MSC_GDPS_WindV_IsbL-0500_LatLon0.15_PT084H.grib2 2026-04-24 04:21 1.1M
20260424T00Z_MSC_GDPS_WindV_IsbL-0550_LatLon0.15_PT084H.grib2 2026-04-24 04:21 1.1M
20260424T00Z_MSC_GDPS_WindV_IsbL-0600_LatLon0.15_PT084H.grib2 2026-04-24 04:21 1.1M
20260424T00Z_MSC_GDPS_WindV_IsbL-0650_LatLon0.15_PT084H.grib2 2026-04-24 04:21 1.2M
20260424T00Z_MSC_GDPS_WindV_IsbL-0700_LatLon0.15_PT084H.grib2 2026-04-24 04:21 1.2M
20260424T00Z_MSC_GDPS_WindV_IsbL-0750_LatLon0.15_PT084H.grib2 2026-04-24 04:21 1.3M
20260424T00Z_MSC_GDPS_WindV_IsbL-0800_LatLon0.15_PT084H.grib2 2026-04-24 04:21 1.3M
20260424T00Z_MSC_GDPS_WindV_IsbL-0850_LatLon0.15_PT084H.grib2 2026-04-24 04:21 1.4M
20260424T00Z_MSC_GDPS_WindV_IsbL-0875_LatLon0.15_PT084H.grib2 2026-04-24 04:21 1.4M
20260424T00Z_MSC_GDPS_WindV_IsbL-0900_LatLon0.15_PT084H.grib2 2026-04-24 04:21 1.5M
20260424T00Z_MSC_GDPS_WindV_IsbL-0925_LatLon0.15_PT084H.grib2 2026-04-24 04:21 1.5M
20260424T00Z_MSC_GDPS_WindV_IsbL-0950_LatLon0.15_PT084H.grib2 2026-04-24 04:21 1.4M
20260424T00Z_MSC_GDPS_WindV_IsbL-0970_LatLon0.15_PT084H.grib2 2026-04-24 04:21 1.4M
20260424T00Z_MSC_GDPS_WindV_IsbL-0985_LatLon0.15_PT084H.grib2 2026-04-24 04:21 1.4M
20260424T00Z_MSC_GDPS_WindV_IsbL-1000_LatLon0.15_PT084H.grib2 2026-04-24 04:21 1.4M
20260424T00Z_MSC_GDPS_WindV_IsbL-1015_LatLon0.15_PT084H.grib2 2026-04-24 04:21 1.4M